Location: Grisols
(45.0093°N, 3.1167°E)
Time: 19:36:17
(UTC+00:00)

Shenzhou-11 Module - Pass Details

Date: 21 October 2019
Orbit: 311 x 323 km, 42.8° (Epoch: 11 November)

Event Time Altitude Azimuth Distance (km) Brightness Sun altitude
Rises 17:50:22 0° 272° (W) 2,073 7.9 -10.8°
Reaches altitude 10° 17:52:27 10° 262° (W) 1,236 6.2 -11.2°
Maximum altitude 17:55:00 33° 196° (SSW) 567 3.1 -11.6°
Enters shadow 17:56:59 14° 134° (SE) 1,027 3.8 -12.0°
